TimeEST,TemperatureF,Dew PointF,Humidity,Sea Level PressureIn,VisibilityMPH,Wind Direction,Wind SpeedMPH,Gust SpeedMPH,PrecipitationIn,Events,Conditions,WindDirDegrees,DateUTC
12:56 AM,32.0,19.9,61,30.15,10.0,SSW,17.3,26.5,N/A,,Clear,210,2013-01-19 05:56:00
1:56 AM,33.1,19.9,59,30.16,10.0,SW,16.1,-,N/A,,Clear,220,2013-01-19 06:56:00
2:56 AM,33.1,19.9,59,30.16,10.0,SSW,11.5,-,N/A,,Clear,210,2013-01-19 07:56:00
3:56 AM,35.1,19.9,54,30.14,10.0,SW,11.5,-,N/A,,Clear,220,2013-01-19 08:56:00
4:56 AM,36.0,19.9,52,30.12,10.0,SW,19.6,25.3,N/A,,Clear,230,2013-01-19 09:56:00
5:56 AM,35.1,19.9,54,30.12,10.0,SW,19.6,26.5,N/A,,Clear,220,2013-01-19 10:56:00
6:56 AM,35.1,21.0,57,30.12,10.0,SW,20.7,27.6,N/A,,Clear,230,2013-01-19 11:56:00
7:56 AM,35.1,21.9,59,30.12,10.0,SW,18.4,24.2,N/A,,Clear,230,2013-01-19 12:56:00
8:56 AM,37.0,21.9,54,30.12,10.0,SW,19.6,26.5,N/A,,Clear,230,2013-01-19 13:56:00
9:56 AM,39.9,21.9,49,30.12,10.0,SW,25.3,28.8,N/A,,Clear,230,2013-01-19 14:56:00
10:56 AM,42.1,24.1,49,30.09,10.0,SW,23.0,33.4,N/A,,Clear,230,2013-01-19 15:56:00
11:56 AM,45.0,25.0,46,30.05,10.0,SW,21.9,28.8,N/A,,Clear,230,2013-01-19 16:56:00
12:56 PM,46.0,26.1,46,30.01,10.0,SW,23.0,28.8,N/A,,Clear,230,2013-01-19 17:56:00
1:56 PM,46.9,27.0,46,29.97,10.0,SW,13.8,31.1,N/A,,Clear,220,2013-01-19 18:56:00
2:56 PM,48.0,27.0,44,29.94,10.0,SSW,23.0,36.8,N/A,,Clear,210,2013-01-19 19:56:00
3:56 PM,48.0,26.1,42,29.91,10.0,SW,21.9,29.9,N/A,,Clear,220,2013-01-19 20:56:00
4:56 PM,46.9,24.1,41,29.87,10.0,SSW,19.6,28.8,N/A,,Clear,200,2013-01-19 21:56:00
5:56 PM,46.0,24.1,42,29.84,10.0,SSW,18.4,25.3,N/A,,Clear,210,2013-01-19 22:56:00
6:56 PM,46.0,25.0,44,29.86,10.0,SW,18.4,31.1,N/A,,Clear,230,2013-01-19 23:56:00
7:56 PM,46.0,25.0,44,29.85,10.0,SW,20.7,27.6,N/A,,Clear,230,2013-01-20 00:56:00
8:56 PM,45.0,25.0,46,29.83,10.0,SW,24.2,31.1,N/A,,Clear,230,2013-01-20 01:56:00
9:56 PM,44.1,26.1,49,29.81,10.0,SW,23.0,29.9,N/A,,Clear,230,2013-01-20 02:56:00
10:56 PM,43.0,26.1,51,29.79,10.0,SW,21.9,29.9,N/A,,Clear,230,2013-01-20 03:56:00
11:56 PM,43.0,27.0,53,29.76,10.0,WSW,20.7,35.7,N/A,,Partly Cloudy,240,2013-01-20 04:56:00